2018-058B

Last updated on July 11, 2018, 12:15 a.m. UTC

1 43538U 18058B   18191.63957013  .01558006  12122-4  34608-3 0  9990
2 43538  51.6529 261.6021 0019678  70.6079 289.7082 16.28924446   126

Satellite is not in orbit.